{"data":{"norad_id":62738,"intl_designator":"2025-014D","name":"STARLINK-32802","alt_names":[],"object_type":"PAYLOAD","status":"ACTIVE","operator":null,"country":"US","launch_date":"2025-01-21","launch_site_code":"AFETR","launch_vehicle":null,"mission":null,"orbit_class":"UNKNOWN","rcs_meters":null,"size_class":null,"mass_kg":null,"dimensions":null,"purposes":["comms"],"wikipedia_slug":null,"has_3d_model":false,"image_url":null,"decayed_at":null,"tle_current":{"epoch":"2026-05-25T04:57:25.072416Z","epoch_age_seconds":64128,"freshness":"FRESH","line1":"1 62738U 25014D   26145.20654019  .00013830  00000+0  51102-3 0  9999","line2":"2 62738  43.0038  81.9157 0001016 270.7931  89.2804 15.27588721 74967","mean_motion":15.27588721,"eccentricity":0.0001016,"inclination_deg":43.0038,"raan_deg":81.9157,"arg_perigee_deg":270.7931,"mean_anomaly_deg":89.2804,"bstar":0.00051102,"rev_number":7496,"period_min":94.266210545031,"perigee_km":482.32588849832,"apogee_km":483.72007620673,"semimajor_km":6861.1599823525,"source":"CELESTRAK","updated_at":"2026-05-25T13:38:19.738509Z"}}}